• In Italy
  • List of Countries
  • For 7 days
  • Water Temperature
  • Satellite Maps
  • Weather Map
  • Weather Widgets
  • user-avatar
    Login

    Hourly Weather Bramming

    Today, 18 October, Thursday

    Time Temperature Precipitation Wind Pressure Humidity
    00:00 +12°C° 0 mm 3 mps 764 mmHg 96%
    01:00 +12°C° 0 mm 3 mps 764 mmHg 97%
    02:00 +12°C° 0 mm 4 mps 764 mmHg 96%
    03:00 +11°C° 0 mm 4 mps 764 mmHg 96%
    04:00 +11°C° 0 mm 4 mps 764 mmHg 96%
    05:00 +11°C° 0 mm 4 mps 765 mmHg 95%
    06:00 +10°C° 0 mm 4 mps 765 mmHg 94%
    07:00 +9°C° 0 mm 5 mps 765 mmHg 94%
    08:00 +10°C° 0 mm 5 mps 766 mmHg 86%
    09:00 +10°C° 0 mm 5 mps 766 mmHg 79%
    10:00 +12°C° 0 mm 5 mps 767 mmHg 71%
    11:00 +13°C° 0 mm 5 mps 767 mmHg 68%
    12:00 +13°C° 0 mm 5 mps 767 mmHg 64%
    13:00 +13°C° 0 mm 5 mps 767 mmHg 60%
    14:00 +13°C° 0 mm 5 mps 767 mmHg 62%
    15:00 +13°C° 0 mm 5 mps 767 mmHg 64%
    16:00 +12°C° 0 mm 5 mps 767 mmHg 66%
    17:00 +11°C° 0 mm 4 mps 768 mmHg 71%
    18:00 +10°C° 0 mm 4 mps 768 mmHg 76%
    19:00 +8°C° 0 mm 4 mps 768 mmHg 81%
    20:00 +8°C° 0 mm 3 mps 768 mmHg 82%
    21:00 +8°C° 0 mm 3 mps 768 mmHg 84%
    22:00 +8°C° 0 mm 3 mps 768 mmHg 86%
    23:00 +8°C° 0 mm 3 mps 768 mmHg 86%

    Tomorrow, 19 October, Friday

    Time Temperature Precipitation Wind Pressure Humidity
    00:00 +8°C° 0 mm 2 mps 768 mmHg 87%
    01:00 +8°C° 0 mm 2 mps 768 mmHg 87%
    02:00 +7°C° 0 mm 2 mps 768 mmHg 87%
    03:00 +7°C° 0 mm 2 mps 768 mmHg 88%
    04:00 +7°C° 0 mm 2 mps 768 mmHg 88%
    05:00 +7°C° 0 mm 2 mps 768 mmHg 87%
    06:00 +7°C° 0 mm 2 mps 768 mmHg 87%
    07:00 +7°C° 0 mm 2 mps 768 mmHg 87%
    08:00 +9°C° 0 mm 2 mps 769 mmHg 82%
    09:00 +10°C° 0 mm 3 mps 769 mmHg 77%
    10:00 +11°C° 0 mm 3 mps 769 mmHg 72%
    11:00 +11°C° 0 mm 3 mps 769 mmHg 70%
    12:00 +11°C° 0 mm 3 mps 769 mmHg 68%
    13:00 +12°C° 0 mm 3 mps 769 mmHg 66%
    14:00 +11°C° 0 mm 3 mps 769 mmHg 67%
    15:00 +11°C° 0 mm 3 mps 769 mmHg 68%
    16:00 +11°C° 0 mm 3 mps 769 mmHg 68%
    17:00 +10°C° 0 mm 3 mps 769 mmHg 71%
    18:00 +9°C° 0 mm 3 mps 769 mmHg 73%
    19:00 +9°C° 0 mm 3 mps 769 mmHg 75%
    20:00 +8°C° 0 mm 3 mps 770 mmHg 77%
    21:00 +8°C° 0 mm 3 mps 770 mmHg 78%
    22:00 +8°C° 0 mm 3 mps 770 mmHg 79%
    23:00 +8°C° 0 mm 3 mps 770 mmHg 79%

    Day after tomorrow, 20 October, Saturday

    Time Temperature Precipitation Wind Pressure Humidity
    00:00 +8°C° 0 mm 3 mps 770 mmHg 79%
    01:00 +9°C° 0 mm 3 mps 770 mmHg 79%
    02:00 +8°C° 0 mm 4 mps 770 mmHg 79%
    03:00 +8°C° 0 mm 4 mps 770 mmHg 79%
    04:00 +8°C° 0 mm 4 mps 770 mmHg 79%
    05:00 +8°C° 0 mm 4 mps 771 mmHg 82%
    06:00 +8°C° 0 mm 4 mps 771 mmHg 84%
    07:00 +8°C° 0 mm 4 mps 771 mmHg 87%
    08:00 +10°C° 0 mm 4 mps 771 mmHg 84%
    09:00 +10°C° 0 mm 5 mps 771 mmHg 81%
    10:00 +13°C° 0 mm 5 mps 772 mmHg 78%
    11:00 +13°C° 0 mm 5 mps 772 mmHg 77%
    12:00 +13°C° 0 mm 5 mps 772 mmHg 76%
    13:00 +14°C° 0 mm 5 mps 772 mmHg 75%
    14:00 +14°C° 0 mm 5 mps 772 mmHg 77%
    15:00 +13°C° 0 mm 5 mps 772 mmHg 79%
    16:00 +13°C° 0 mm 5 mps 772 mmHg 81%
    17:00 +12°C° 0 mm 4 mps 772 mmHg 85%
    18:00 +11°C° 0 mm 4 mps 772 mmHg 88%
    19:00 +10°C° 0 mm 4 mps 772 mmHg 92%
    20:00 +10°C° 0 mm 4 mps 772 mmHg 92%
    21:00 +11°C° 0 mm 4 mps 772 mmHg 93%
    22:00 +11°C° 0 mm 4 mps 772 mmHg 93%
    23:00 +11°C° 0 mm 4 mps 772 mmHg 93%

    21 October, Sunday

    Time Temperature Precipitation Wind Pressure Humidity
    00:00 +10°C° 0 mm 5 mps 772 mmHg 93%
    01:00 +10°C° 0 mm 5 mps 771 mmHg 93%
    02:00 +10°C° 0 mm 6 mps 771 mmHg 92%
    03:00 +10°C° 0 mm 6 mps 771 mmHg 91%
    04:00 +10°C° 0 mm 6 mps 770 mmHg 90%
    05:00 +10°C° 0 mm 6 mps 770 mmHg 90%
    06:00 +10°C° 0 mm 6 mps 770 mmHg 89%
    07:00 +10°C° 0 mm 6 mps 769 mmHg 88%
    08:00 +11°C° 0 mm 7 mps 769 mmHg 84%
    09:00 +12°C° 0 mm 7 mps 769 mmHg 81%
    10:00 +14°C° 0 mm 7 mps 769 mmHg 77%
    11:00 +14°C° 0 mm 7 mps 769 mmHg 77%
    12:00 +14°C° 0 mm 7 mps 769 mmHg 77%
    13:00 +14°C° 0 mm 7 mps 768 mmHg 78%
    14:00 +14°C° 0 mm 7 mps 768 mmHg 79%
    15:00 +14°C° 0 mm 7 mps 767 mmHg 80%
    16:00 +14°C° 0 mm 7 mps 767 mmHg 82%
    17:00 +12°C° 0.1 mm 8 mps 766 mmHg 82%
    18:00 +12°C° 0.1 mm 8 mps 766 mmHg 83%
    19:00 +12°C° 0.1 mm 8 mps 766 mmHg 83%
    20:00 +12°C° 0.6 mm 8 mps 766 mmHg 86%
    21:00 +12°C° 0.6 mm 8 mps 766 mmHg 88%
    22:00 +12°C° 0.6 mm 8 mps 766 mmHg 90%
    23:00 +11°C° 0.1 mm 7 mps 767 mmHg 88%

    22 October, Monday

    Time Temperature Precipitation Wind Pressure Humidity
    00:00 +10°C° 0.1 mm 7 mps 767 mmHg 86%
    01:00 +10°C° 0.1 mm 7 mps 768 mmHg 84%
    02:00 +9°C° 0 mm 7 mps 768 mmHg 85%
    03:00 +9°C° 0 mm 6 mps 769 mmHg 85%
    04:00 +8°C° 0 mm 6 mps 769 mmHg 86%
    05:00 +8°C° 0 mm 6 mps 769 mmHg 84%
    06:00 +8°C° 0 mm 7 mps 770 mmHg 82%
    07:00 +8°C° 0 mm 7 mps 770 mmHg 80%
    08:00 +9°C° 0 mm 7 mps 771 mmHg 75%
    09:00 +9°C° 0 mm 8 mps 771 mmHg 69%
    10:00 +10°C° 0 mm 8 mps 771 mmHg 63%
    11:00 +10°C° 0 mm 8 mps 771 mmHg 61%
    12:00 +10°C° 0 mm 8 mps 771 mmHg 59%
    13:00 +11°C° 0 mm 8 mps 771 mmHg 56%
    14:00 +10°C° 0 mm 8 mps 771 mmHg 60%
    15:00 +10°C° 0 mm 8 mps 771 mmHg 64%
    16:00 +10°C° 0 mm 8 mps 770 mmHg 68%
    17:00 +10°C° 0.1 mm 8 mps 770 mmHg 69%
    18:00 +9°C° 0.1 mm 8 mps 769 mmHg 70%
    19:00 +9°C° 0.1 mm 8 mps 769 mmHg 71%
    20:00 +8°C° 0.2 mm 9 mps 768 mmHg 73%
    21:00 +8°C° 0.2 mm 9 mps 767 mmHg 75%
    22:00 +8°C° 0.2 mm 10 mps 766 mmHg 77%
    23:00 +8°C° 0.7 mm 10 mps 765 mmHg 79%

    23 October, Tuesday

    Time Temperature Precipitation Wind Pressure Humidity
    00:00 +8°C° 0.7 mm 11 mps 764 mmHg 81%
    01:00 +8°C° 0.7 mm 12 mps 763 mmHg 84%
    02:00 +8°C° 0.9 mm 11 mps 762 mmHg 83%
    03:00 +8°C° 0.9 mm 9 mps 761 mmHg 82%
    04:00 +9°C° 0.9 mm 8 mps 761 mmHg 81%
    05:00 +7°C° 0.3 mm 9 mps 761 mmHg 78%
    06:00 +6°C° 0.3 mm 9 mps 761 mmHg 75%
    07:00 +5°C° 0.3 mm 9 mps 761 mmHg 73%
    08:00 +6°C° 0 mm 9 mps 761 mmHg 69%
    09:00 +6°C° 0 mm 9 mps 762 mmHg 66%
    10:00 +7°C° 0 mm 9 mps 763 mmHg 62%
    11:00 +7°C° 0 mm 9 mps 763 mmHg 60%
    12:00 +8°C° 0 mm 9 mps 763 mmHg 58%
    13:00 +8°C° 0 mm 9 mps 763 mmHg 57%
    14:00 +8°C° 0 mm 9 mps 763 mmHg 59%
    15:00 +7°C° 0 mm 8 mps 763 mmHg 60%
    16:00 +7°C° 0 mm 8 mps 763 mmHg 62%
    17:00 +6°C° 0 mm 8 mps 764 mmHg 65%
    18:00 +6°C° 0 mm 8 mps 764 mmHg 67%
    19:00 +5°C° 0 mm 7 mps 764 mmHg 70%
    20:00 +5°C° 0 mm 7 mps 765 mmHg 71%
    21:00 +5°C° 0 mm 7 mps 765 mmHg 73%
    22:00 +5°C° 0 mm 6 mps 765 mmHg 75%
    23:00 +5°C° 0 mm 6 mps 765 mmHg 77%
    Show more